TVF56BQ LFMP-LFPO

Flight info

Callsign TVF56BQ
Flight time 1h 4m
Altitude 28000
Route ORBIL G36 GAI DCT PERIG DCT DIBAG DCT TUDRA DCT BEVOL UT158 AMB
Aircraft B738/M-SDE2E3FGHIRWXY/LB1

Departure

Time 2026-05-05 14:54
Airport Perpignan-Rivesaltes (Llabanère) Airport (LFMP)

Arrival

Time 2026-05-05 15:58
Airport Paris-Orly Airport (LFPO)
Time Latitude Longitude Altitude Speed Heading
2026-05-05 14:32 42.74017 2.86926 136 ft 0 kts 349°
2026-05-05 14:48 42.74012 2.86927 147 ft 6 kts 349°
2026-05-05 14:48 42.73972 2.86931 147 ft 6 kts 31°
2026-05-05 14:49 42.73952 2.86908 147 ft 0 kts 75°
2026-05-05 14:50 42.73953 2.86916 147 ft 7 kts 75°
2026-05-05 14:50 42.73985 2.87051 147 ft 18 kts 51°
2026-05-05 14:50 42.74132 2.87005 147 ft 17 kts 327°
2026-05-05 14:51 42.74227 2.86911 147 ft 17 kts 316°
2026-05-05 14:51 42.74292 2.86851 147 ft 18 kts 329°
2026-05-05 14:51 42.74434 2.86731 147 ft 28 kts 328°
2026-05-05 14:51 42.74596 2.86596 147 ft 26 kts 329°
2026-05-05 14:52 42.74751 2.86469 147 ft 27 kts 328°
2026-05-05 14:52 42.74915 2.86334 147 ft 27 kts 339°
2026-05-05 14:52 42.75076 2.86222 147 ft 25 kts 328°
2026-05-05 14:52 42.75233 2.86090 147 ft 23 kts 329°
2026-05-05 14:53 42.75375 2.86011 147 ft 23 kts 12°
2026-05-05 14:53 42.75406 2.86177 148 ft 22 kts 142°
2026-05-05 14:53 42.75057 2.86468 147 ft 103 kts 148°
2026-05-05 14:53 42.74230 2.87178 224 ft 171 kts 147°
2026-05-05 14:54 42.73145 2.88076 963 ft 191 kts 144°
2026-05-05 14:54 42.72407 2.89406 2334 ft 175 kts 102°
2026-05-05 14:54 42.72670 2.90961 3482 ft 177 kts 53°
2026-05-05 14:54 42.73746 2.91830 4160 ft 195 kts 15°
2026-05-05 14:55 42.75169 2.92339 4474 ft 226 kts 15°
2026-05-05 14:55 42.76777 2.92942 4733 ft 251 kts 16°
2026-05-05 14:55 42.78495 2.93510 5277 ft 258 kts
2026-05-05 14:55 42.80259 2.93106 5886 ft 259 kts 333°
2026-05-05 14:56 42.81732 2.91741 6701 ft 258 kts 317°
2026-05-05 14:56 42.83073 2.90089 7555 ft 261 kts 315°
2026-05-05 14:56 42.84383 2.88434 8460 ft 260 kts 314°
2026-05-05 14:56 42.85716 2.86764 9347 ft 262 kts 314°
2026-05-05 14:57 42.87110 2.85112 10066 ft 268 kts 316°
2026-05-05 14:57 42.88565 2.83479 10785 ft 273 kts 317°
2026-05-05 14:57 42.90048 2.81835 11482 ft 278 kts 317°
2026-05-05 14:57 42.91547 2.80173 12241 ft 277 kts 317°
2026-05-05 14:58 42.93047 2.78506 12856 ft 280 kts 316°
2026-05-05 14:58 42.94564 2.76812 13374 ft 284 kts 316°
2026-05-05 14:58 42.96103 2.75090 13831 ft 290 kts 316°
2026-05-05 14:58 42.97713 2.73281 13939 ft 310 kts 316°
2026-05-05 14:59 42.99446 2.71331 14098 ft 335 kts 316°
2026-05-05 14:59 43.01306 2.69235 14292 ft 359 kts 316°
2026-05-05 14:59 43.03272 2.67027 14724 ft 371 kts 317°
2026-05-05 14:59 43.05280 2.64774 15389 ft 375 kts 316°
2026-05-05 15:00 43.07306 2.62502 16118 ft 378 kts 316°
2026-05-05 15:00 43.08656 2.60984 16585 ft 380 kts 316°
2026-05-05 15:00 43.11412 2.57878 17519 ft 387 kts 316°
2026-05-05 15:00 43.13498 2.55523 18199 ft 391 kts 316°
2026-05-05 15:01 43.15602 2.53146 18799 ft 394 kts 316°
2026-05-05 15:01 43.17721 2.50749 19470 ft 395 kts 315°
2026-05-05 15:01 43.19885 2.48404 20050 ft 401 kts 320°
2026-05-05 15:01 43.22237 2.46284 20581 ft 408 kts 323°
2026-05-05 15:02 43.24680 2.44259 21150 ft 412 kts 324°
2026-05-05 15:02 43.27151 2.42231 21709 ft 416 kts 324°
2026-05-05 15:02 43.29628 2.40156 22244 ft 419 kts 323°
2026-05-05 15:02 43.32113 2.38030 22756 ft 423 kts 323°
2026-05-05 15:03 43.34615 2.35869 23280 ft 427 kts 323°
2026-05-05 15:03 43.37135 2.33674 23747 ft 431 kts 323°
2026-05-05 15:03 43.39672 2.31450 24203 ft 434 kts 322°
2026-05-05 15:03 43.42222 2.29214 24685 ft 436 kts 322°
2026-05-05 15:04 43.44784 2.26968 25146 ft 438 kts 322°
2026-05-05 15:04 43.47359 2.24708 25579 ft 441 kts 322°
2026-05-05 15:04 43.49941 2.22413 26006 ft 443 kts 321°
2026-05-05 15:04 43.52528 2.20091 26407 ft 445 kts 321°
2026-05-05 15:05 43.57751 2.15388 27197 ft 451 kts 321°
2026-05-05 15:05 43.60380 2.13021 27591 ft 453 kts 321°
2026-05-05 15:05 43.63026 2.10640 27962 ft 455 kts 320°
2026-05-05 15:06 43.65686 2.08244 28347 ft 458 kts 320°
2026-05-05 15:06 43.68359 2.05836 28712 ft 460 kts 320°
2026-05-05 15:06 43.71043 2.03414 29081 ft 462 kts 320°
2026-05-05 15:06 43.73757 2.01005 29421 ft 465 kts 321°
2026-05-05 15:07 43.76509 1.98635 29751 ft 468 kts 322°
2026-05-05 15:07 43.79250 1.96300 30074 ft 470 kts 322°
2026-05-05 15:07 43.82076 1.93892 30325 ft 472 kts 322°
2026-05-05 15:07 43.84871 1.91498 30638 ft 472 kts 322°
2026-05-05 15:08 43.87621 1.89132 31029 ft 470 kts 322°
2026-05-05 15:08 43.90390 1.86741 31423 ft 469 kts 322°
2026-05-05 15:08 43.93155 1.84349 31768 ft 468 kts 322°
2026-05-05 15:08 43.95935 1.81973 32081 ft 470 kts 324°
2026-05-05 15:09 43.98833 1.79732 32433 ft 471 kts 327°
2026-05-05 15:09 44.01698 1.77665 32800 ft 471 kts 328°
2026-05-05 15:09 44.04623 1.75610 33139 ft 471 kts 328°
2026-05-05 15:09 44.07545 1.73564 33465 ft 470 kts 328°
2026-05-05 15:10 44.10464 1.71504 33762 ft 470 kts 328°
2026-05-05 15:10 44.13377 1.69428 34038 ft 470 kts 328°
2026-05-05 15:10 44.16279 1.67342 34308 ft 469 kts 328°
2026-05-05 15:10 44.19178 1.65247 34590 ft 469 kts 328°
2026-05-05 15:11 44.22066 1.63150 34863 ft 468 kts 328°
2026-05-05 15:11 44.24948 1.61055 35116 ft 468 kts 328°
2026-05-05 15:11 44.27837 1.58951 35377 ft 467 kts 328°
2026-05-05 15:11 44.30719 1.56851 35636 ft 467 kts 328°
2026-05-05 15:12 44.33595 1.54753 35882 ft 467 kts 328°
2026-05-05 15:12 44.36472 1.52653 36125 ft 466 kts 328°
2026-05-05 15:12 44.39350 1.50550 36363 ft 466 kts 328°
2026-05-05 15:12 44.42218 1.48453 36605 ft 465 kts 328°
2026-05-05 15:13 44.45086 1.46353 36823 ft 465 kts 328°
2026-05-05 15:13 44.47958 1.44247 37024 ft 466 kts 329°
2026-05-05 15:13 44.50827 1.42141 37240 ft 466 kts 329°
2026-05-05 15:13 44.53696 1.40034 37465 ft 465 kts 329°
2026-05-05 15:14 44.56562 1.37926 37672 ft 465 kts 329°
2026-05-05 15:14 44.59429 1.35815 37860 ft 465 kts 329°
2026-05-05 15:14 44.62294 1.33702 37938 ft 466 kts 329°
2026-05-05 15:15 44.68046 1.29454 37938 ft 467 kts 329°
2026-05-05 15:15 44.73794 1.25201 37936 ft 466 kts 329°
2026-05-05 15:16 44.79487 1.20979 37941 ft 466 kts 329°
2026-05-05 15:16 44.85215 1.16720 37937 ft 465 kts 329°
2026-05-05 15:17 44.90936 1.12457 37938 ft 465 kts 329°
2026-05-05 15:17 44.96655 1.08185 37935 ft 465 kts 329°
2026-05-05 15:18 45.02369 1.03907 37939 ft 465 kts 329°
2026-05-05 15:18 45.08084 0.99621 37949 ft 465 kts 329°
2026-05-05 15:19 45.14074 0.96107 37931 ft 471 kts 345°
2026-05-05 15:19 45.20524 0.94371 37942 ft 472 kts 348°
2026-05-05 15:20 45.27005 0.92767 37948 ft 473 kts 347°
2026-05-05 15:20 45.33484 0.91085 37939 ft 474 kts 347°
2026-05-05 15:21 45.39965 0.89349 37927 ft 473 kts 347°
2026-05-05 15:21 45.46430 0.87604 37932 ft 472 kts 347°
2026-05-05 15:22 45.52885 0.85860 37926 ft 472 kts 347°
2026-05-05 15:22 45.59326 0.84118 37931 ft 471 kts 347°
2026-05-05 15:23 45.65759 0.82375 37923 ft 470 kts 347°
2026-05-05 15:23 45.72179 0.80631 37920 ft 469 kts 347°
2026-05-05 15:24 45.78601 0.78924 37920 ft 470 kts 351°
2026-05-05 15:24 45.85137 0.78551 37917 ft 471 kts 359°
2026-05-05 15:25 45.91698 0.78600 37916 ft 472 kts 359°
2026-05-05 15:25 45.98267 0.78613 37908 ft 472 kts 359°
2026-05-05 15:26 46.04838 0.78568 37896 ft 473 kts 358°
2026-05-05 15:26 46.11422 0.78502 37886 ft 473 kts 358°
2026-05-05 15:27 46.18011 0.78437 37886 ft 474 kts 359°
2026-05-05 15:27 46.24565 0.78375 37877 ft 474 kts 359°
2026-05-05 15:28 46.31166 0.78314 37873 ft 475 kts 359°
2026-05-05 15:28 46.37774 0.78252 37860 ft 475 kts 359°
2026-05-05 15:29 46.44386 0.78190 37863 ft 475 kts 359°
2026-05-05 15:29 46.50993 0.78127 37853 ft 475 kts 359°
2026-05-05 15:30 46.57558 0.79038 37863 ft 475 kts 11°
2026-05-05 15:30 46.64002 0.81150 37850 ft 474 kts 13°
2026-05-05 15:30 46.67183 0.82219 37824 ft 462 kts 12°
2026-05-05 15:31 46.70271 0.83238 37828 ft 447 kts 12°
2026-05-05 15:31 46.73260 0.84205 37815 ft 433 kts 12°
2026-05-05 15:31 46.76153 0.85129 37823 ft 419 kts 12°
2026-05-05 15:32 46.81834 0.86928 37861 ft 421 kts 12°
2026-05-05 15:32 46.87619 0.88764 37874 ft 430 kts 12°
2026-05-05 15:33 46.93527 0.90646 37861 ft 439 kts 12°
2026-05-05 15:33 46.99527 0.92563 37855 ft 443 kts 12°
2026-05-05 15:34 47.05573 0.94489 37854 ft 444 kts 12°
2026-05-05 15:34 47.08600 0.95447 36046 ft 454 kts 12°
2026-05-05 15:34 47.11728 0.96438 34224 ft 461 kts 13°
2026-05-05 15:34 47.14835 0.97424 32179 ft 463 kts 14°
2026-05-05 15:35 47.18006 0.98430 30498 ft 454 kts 15°
2026-05-05 15:35 47.20973 0.99369 29209 ft 432 kts 15°
2026-05-05 15:35 47.23858 1.00285 27814 ft 416 kts 15°
2026-05-05 15:35 47.26636 1.01172 26686 ft 400 kts 15°
2026-05-05 15:36 47.29274 1.02015 26335 ft 385 kts 15°
2026-05-05 15:36 47.31912 1.02866 25795 ft 386 kts 15°
2026-05-05 15:36 47.34540 1.03713 25254 ft 386 kts 15°
2026-05-05 15:36 47.36308 1.04281 24967 ft 384 kts 14°
2026-05-05 15:37 47.38913 1.05118 24525 ft 383 kts 14°
2026-05-05 15:37 47.41510 1.05952 24088 ft 381 kts 14°
2026-05-05 15:37 47.44078 1.06862 23646 ft 379 kts 19°
2026-05-05 15:37 47.47363 1.08574 23039 ft 378 kts 22°
2026-05-05 15:38 47.49031 1.09498 22730 ft 381 kts 22°
2026-05-05 15:38 47.51529 1.10860 22259 ft 384 kts 21°
2026-05-05 15:38 47.54059 1.12185 21809 ft 386 kts 20°
2026-05-05 15:38 47.56591 1.13471 21370 ft 384 kts 20°
2026-05-05 15:39 47.59116 1.14741 20927 ft 382 kts 20°
2026-05-05 15:39 47.61628 1.16006 20494 ft 381 kts 20°
2026-05-05 15:39 47.64129 1.17270 20063 ft 379 kts 19°
2026-05-05 15:39 47.66625 1.18535 19635 ft 379 kts 19°
2026-05-05 15:40 47.69114 1.19800 19218 ft 378 kts 19°
2026-05-05 15:40 47.71567 1.21050 18796 ft 377 kts 19°
2026-05-05 15:40 47.74080 1.22333 18370 ft 377 kts 19°
2026-05-05 15:40 47.76524 1.23582 17922 ft 376 kts 19°
2026-05-05 15:41 47.78998 1.24848 17451 ft 376 kts 19°
2026-05-05 15:41 47.81467 1.26113 17005 ft 375 kts 19°
2026-05-05 15:41 47.83921 1.27372 16575 ft 371 kts 19°
2026-05-05 15:41 47.86345 1.28616 16150 ft 367 kts 19°
2026-05-05 15:42 47.88752 1.29853 15741 ft 364 kts 19°
2026-05-05 15:42 47.91133 1.31077 15333 ft 361 kts 18°
2026-05-05 15:42 47.93498 1.32295 14944 ft 359 kts 18°
2026-05-05 15:42 47.95852 1.33508 14535 ft 357 kts 18°
2026-05-05 15:43 47.98192 1.34715 14125 ft 355 kts 18°
2026-05-05 15:43 48.00515 1.35914 13734 ft 352 kts 18°
2026-05-05 15:43 48.02816 1.37103 13308 ft 349 kts 18°
2026-05-05 15:43 48.05097 1.38283 12884 ft 346 kts 18°
2026-05-05 15:44 48.07244 1.39841 12519 ft 342 kts 33°
2026-05-05 15:44 48.09169 1.41861 12221 ft 335 kts 34°
2026-05-05 15:44 48.11065 1.43850 11914 ft 330 kts 34°
2026-05-05 15:44 48.12948 1.45785 11599 ft 326 kts 33°
2026-05-05 15:45 48.14808 1.47677 11296 ft 321 kts 33°
2026-05-05 15:45 48.16644 1.49535 11000 ft 316 kts 33°
2026-05-05 15:45 48.18453 1.51364 10709 ft 312 kts 33°
2026-05-05 15:45 48.20238 1.53169 10420 ft 307 kts 33°
2026-05-05 15:46 48.22000 1.54954 10157 ft 305 kts 33°
2026-05-05 15:46 48.23752 1.56731 9850 ft 302 kts 33°
2026-05-05 15:46 48.25440 1.58532 9749 ft 291 kts 36°
2026-05-05 15:46 48.27022 1.60335 9564 ft 284 kts 37°
2026-05-05 15:47 48.28598 1.62158 9185 ft 285 kts 37°
2026-05-05 15:47 48.30160 1.63969 8911 ft 282 kts 37°
2026-05-05 15:47 48.31702 1.65753 8658 ft 278 kts 37°
2026-05-05 15:47 48.33226 1.67514 8426 ft 275 kts 37°
2026-05-05 15:48 48.34732 1.69251 8204 ft 271 kts 37°
2026-05-05 15:48 48.36214 1.70961 8011 ft 267 kts 37°
2026-05-05 15:48 48.37683 1.72655 7783 ft 265 kts 37°
2026-05-05 15:48 48.39144 1.74339 7580 ft 264 kts 37°
2026-05-05 15:49 48.40599 1.76017 7361 ft 262 kts 37°
2026-05-05 15:49 48.42035 1.77674 7141 ft 259 kts 36°
2026-05-05 15:49 48.43453 1.79313 6950 ft 255 kts 37°
2026-05-05 15:49 48.44864 1.80943 6763 ft 257 kts 36°
2026-05-05 15:50 48.46288 1.82589 6557 ft 260 kts 37°
2026-05-05 15:50 48.47725 1.84251 6351 ft 261 kts 37°
2026-05-05 15:50 48.49164 1.85918 6126 ft 261 kts 37°
2026-05-05 15:50 48.50601 1.87583 5913 ft 260 kts 37°
2026-05-05 15:51 48.52028 1.89238 5697 ft 257 kts 37°
2026-05-05 15:51 48.53422 1.90856 5619 ft 249 kts 36°
2026-05-05 15:51 48.54784 1.92437 5464 ft 245 kts 37°
2026-05-05 15:51 48.56127 1.93997 5283 ft 243 kts 37°
2026-05-05 15:52 48.57466 1.95553 5088 ft 243 kts 37°
2026-05-05 15:52 48.58795 1.97100 4932 ft 238 kts 37°
2026-05-05 15:52 48.60021 1.98674 4886 ft 227 kts 49°
2026-05-05 15:52 48.60927 2.00557 4799 ft 215 kts 55°
2026-05-05 15:53 48.61680 2.02401 4658 ft 200 kts 58°
2026-05-05 15:53 48.62337 2.04190 4416 ft 190 kts 59°
2026-05-05 15:53 48.62945 2.05911 4160 ft 181 kts 59°
2026-05-05 15:53 48.63520 2.07551 3909 ft 171 kts 59°
2026-05-05 15:54 48.64060 2.09094 3702 ft 164 kts 59°
2026-05-05 15:54 48.64600 2.10631 3499 ft 167 kts 59°
2026-05-05 15:54 48.64983 2.11725 3347 ft 168 kts 59°
2026-05-05 15:54 48.65526 2.13273 3119 ft 169 kts 59°
2026-05-05 15:55 48.66079 2.14854 2884 ft 165 kts 58°
2026-05-05 15:55 48.66603 2.16346 2678 ft 162 kts 59°
2026-05-05 15:55 48.67132 2.17855 2460 ft 164 kts 59°
2026-05-05 15:55 48.67668 2.19379 2233 ft 164 kts 59°
2026-05-05 15:56 48.68198 2.20890 2011 ft 162 kts 58°
2026-05-05 15:56 48.68727 2.22395 1796 ft 162 kts 58°
2026-05-05 15:56 48.69261 2.23911 1565 ft 165 kts 58°
2026-05-05 15:56 48.69801 2.25447 1309 ft 166 kts 59°
2026-05-05 15:57 48.70336 2.26972 1071 ft 165 kts 58°
2026-05-05 15:57 48.70862 2.28467 847 ft 156 kts 58°
2026-05-05 15:57 48.71358 2.29905 626 ft 148 kts 59°
2026-05-05 15:57 48.71811 2.31156 412 ft 127 kts 58°
2026-05-05 15:58 48.72217 2.32296 307 ft 124 kts 58°
2026-05-05 15:58 48.72613 2.33407 297 ft 101 kts 63°
2026-05-05 15:58 48.72773 2.34049 296 ft 43 kts 81°
2026-05-05 15:58 48.72805 2.34393 295 ft 17 kts 82°
2026-05-05 15:59 48.72823 2.34589 297 ft 22 kts 82°
2026-05-05 15:59 48.72844 2.34817 295 ft 22 kts 82°
2026-05-05 15:59 48.72866 2.35039 299 ft 21 kts 82°
2026-05-05 15:59 48.72888 2.35271 295 ft 26 kts 81°
2026-05-05 16:00 48.72946 2.35507 298 ft 23 kts 36°
2026-05-05 16:00 48.72958 2.35696 299 ft 18 kts 125°
2026-05-05 16:00 48.72953 2.35706 298 ft 5 kts 125°
2026-05-05 16:00 48.72967 2.35677 298 ft 0 kts 125°